Home   Weather   Lehrte   Past weeks

Flag for Germany Past Weather in Lehrte, Lower Saxony, Germany — Yesterday and Last 2 Weeks

Now
39 °F

Partly sunny.


Feels Like: 34 °F
Forecast: 24 / 28 °F
Wind: 8 mph from Southeast

Location: Hannover

Current Time: Jan 21, 2017 at 2:27:03 pm

Latest Report: Jan 21, 2017 at 1:50 pm


Visibility: N/A

Pressure: 30.45 "Hg

Humidity: 75%

Dew Point: 32 °F

Location of LehrteLocation

Past Weather in Lehrte — Graph

°F

Lehrte Temperature Yesterday

Maximum temperature yesterday: 39 °F (at 11:50 am)
Minimum temperature yesterday: 28 °F (at 1:20 am)
Average temperature yesterday: 33 °F

High & Low Weather Summary for the Past Weeks

 TemperatureHumidityPressure
High43 °F (Jan 11, 3:20 pm)100% (Jan 7, 8:20 pm)30.74 "Hg (Jan 7, 8:20 pm)
Low19 °F (Jan 6, 6:20 pm)48% (Jan 20, 12:20 pm)28.94 "Hg (Jan 13, 4:20 am)
Average32 °F86%30.17 "Hg
* Reported Jan 6 1:20 pm — Jan 21 1:20 pm, Lehrte, Weather by CustomWeather, © 2017

Note: Actual official high and low records may vary slightly from our data, if they occured in-between our weather recording intervals... More about our weather records

Advertising

Lehrte Weather History for the Previous 24 Hours

Scroll right to see more
 ConditionsComfort  
Time TempWeatherWind HumidityBarometerVisibility
1:20 pm
Sat, Jan 21
37 °FPartly sunny.9 mph81%30.48 "HgN/A
12:50 pm39 °FPartly sunny.8 mph75%30.48 "HgN/A
12:20 pm37 °FPartly sunny.9 mph81%30.48 "HgN/A
11:50 am37 °FPartly sunny.9 mph81%30.48 "HgN/A
11:20 am37 °FPartly sunny.5 mph81%30.51 "HgN/A
10:50 am36 °FPartly sunny.3 mph81%30.51 "HgN/A
10:20 am36 °FPartly sunny.3 mph87%30.51 "HgN/A
9:50 am34 °FPartly sunny.5 mph87%30.51 "HgN/A
9:20 am34 °FPartly sunny.3 mph93%30.51 "HgN/A
8:50 am34 °FPartly sunny.3 mph87%30.51 "HgN/A
8:20 am34 °FPartly sunny.5 mph87%30.48 "HgN/A
7:50 am34 °FPassing clouds.6 mph93%30.48 "Hg6 mi
7:20 am34 °FPassing clouds.1 mph93%30.48 "Hg6 mi
6:50 am34 °FPassing clouds.2 mph93%30.48 "Hg6 mi
6:20 am34 °FPassing clouds.3 mph93%30.51 "Hg6 mi
5:50 am34 °FPassing clouds.3 mph93%30.51 "Hg6 mi
5:20 am34 °FPassing clouds.2 mph93%30.51 "Hg6 mi
4:50 am34 °FPassing clouds.2 mph93%30.51 "Hg6 mi
4:20 am34 °FPassing clouds.1 mph93%30.51 "HgN/A
3:50 am34 °FPassing clouds.1 mph93%30.51 "HgN/A
3:20 am34 °FPassing clouds.1 mph93%30.51 "HgN/A
2:50 am34 °FPassing clouds.1 mph93%30.51 "HgN/A
2:20 am34 °FPassing clouds.1 mph93%30.51 "HgN/A
1:50 am34 °FLight rain. Passing clouds.2 mph93%30.54 "HgN/A
1:20 am34 °FLight rain. Passing clouds.2 mph93%30.54 "HgN/A
12:50 am34 °FLight rain. Passing clouds.1 mph93%30.54 "HgN/A
12:20 am34 °FLight rain. Passing clouds.1 mph93%30.54 "HgN/A
11:50 pm
Fri, Jan 20
34 °FPassing clouds.1 mph93%30.54 "HgN/A
11:20 pm34 °FPassing clouds.1 mph93%30.54 "HgN/A
10:50 pm34 °FPassing clouds.1 mph93%30.54 "HgN/A
10:20 pm34 °FPassing clouds.2 mph93%30.54 "HgN/A
9:50 pm34 °FPassing clouds.1 mph93%30.54 "HgN/A
9:20 pm36 °FPassing clouds.1 mph87%30.54 "HgN/A
8:50 pm36 °FPassing clouds.5 mph87%30.54 "HgN/A
8:20 pm34 °FPassing clouds.2 mph93%30.54 "HgN/A
7:50 pm34 °FPassing clouds.1 mph93%30.57 "HgN/A
7:20 pm32 °FPassing clouds.2 mph93%30.57 "HgN/A
6:50 pm32 °FPassing clouds.2 mph93%30.57 "HgN/A
6:20 pm32 °FPassing clouds.No wind93%30.57 "HgN/A
5:50 pm32 °FPassing clouds.1 mph93%30.57 "HgN/A
5:20 pm34 °FPassing clouds.1 mph87%30.57 "HgN/A
4:50 pm36 °FPassing clouds.2 mph87%30.57 "HgN/A
4:20 pm36 °FScattered clouds.3 mph87%30.57 "HgN/A
3:50 pm37 °FScattered clouds.6 mph81%30.57 "HgN/A
3:20 pm37 °FScattered clouds.5 mph81%30.57 "HgN/A
2:50 pm37 °FScattered clouds.5 mph81%30.57 "HgN/A
2:20 pm37 °FScattered clouds.5 mph81%30.57 "HgN/A
Weather by CustomWeather, © 2017

See weather overviewHow to use our weather pages